Regional Weather Roundup
Issued by NWS

Home | Current Version | Previous Version | Graphics & Text | Print | Product List | Glossary On
Versions: 1 2 3 4 5 6 7 8 9 10 11 12 13 14 15 16 17 18 19 20 21 22 23 24 25 26 27 28 29 30 31 32 33 34 35 36 37 38 39 40 41 42 43 44 45 46 47 48 49 50
000
ASUS43 KIND 091409
RWRIN

WEATHER ROUNDUP FOR INDIANA
NATIONAL WEATHER SERVICE INDIANAPOLIS IN
900 AM EST FRI DEC 09 2016

NOTE: "FAIR" INDICATES FEW OR NO CLOUDS BELOW 12,000 FEET WITH NO
SIGNIFICANT WEATHER AND/OR OBSTRUCTIONS TO VISIBILITY.

* - STATION DOES NOT REPORT WEATHER SUCH AS PRECIPITATION OR FOG.

+ - STATION NOT QUALITY CONTROLLED BY THE NATIONAL WEATHER SERVICE.
    USE DATA WITH CAUTION...ESPECIALLY DEWPOINT AND RELATIVE
    HUMIDITY OBSERVATIONS.

INZ001>003-010>013-019-020-091500-
NORTHWEST INDIANA

CITY           SKY/WX    TMP DP  RH WIND       PRES   REMARKS
GARY /AIRPORT/ CLOUDY    25  19  80 W10       30.51R WCI  15
KNOX *+        CLOUDY    23   3  42 W14G21    30.47S WCI  11
LA PORTE +     FLURRIES  23  19  83 W10       30.47R WCI  12
MICHIGAN CITY+ FLURRIES  28  21  74 NW9       30.47R WCI  20
MONTICELLO +   FLURRIES  22  15  75 W10       30.51R WCI  11
RENSSELAER +     N/A     23  21  93 W10       30.51R WCI  12
VALPARAISO     CLOUDY    23  17  78 W14       30.49R WCI  11

$$

LMZ046-743>745-091500-
SOUTHERN LAKE MICHIGAN

STATION/POSITION TIME  TEMP    WIND        PRES    WAVE
                       AIR SEA DIR/SP/G            HT
                 (UTC) (F)     (DEG/KT/KT) (MB)    (FT)

$$

INZ004-005-014>016-021>024-091500-
NORTH CENTRAL INDIANA

CITY           SKY/WX    TMP DP  RH WIND       PRES   REMARKS
ELKHART        LGT SNOW  23  19  86 W8        30.43R WCI  14
GOSHEN         MOCLDY    22  16  78 W14       30.43R WCI   9
LOGANSPORT +   CLOUDY    21  18  86 W12       30.51R WCI   9
PERU/GRISSOM   CLOUDY    22  18  85 W15       30.46S WCI   9
ROCHESTER +    CLEAR     25  21  86 W8        30.47R WCI  16
SOUTH BEND     LGT SNOW  23  21  92 W13       30.44R FOG     WCI  11
WARSAW +       PTCLDY    21  16  79 W9        30.45R WCI  11

$$

INZ006>009-017-018-025>027-091500-
NORTHEAST INDIANA

CITY           SKY/WX    TMP DP  RH WIND       PRES   REMARKS
ANGOLA *+      CLOUDY    23  19  86 W12       30.38R WCI  12
AUBURN +       LGT SNOW  23  19  86 W9        30.42R WCI  13
FORT WAYNE     FLURRIES  22  16  78 W16       30.45R WCI   8
HUNTINGTON +   CLOUDY    21  17  84 W13       30.46R WCI   8
KENDALLVILLE + FLURRIES  23  19  87 W14G20    30.41R WCI  10

$$

INZ028-029-035-036-043>045-051>053-091500-
WEST CENTRAL INDIANA

CITY           SKY/WX    TMP DP  RH WIND       PRES   REMARKS
CRAWFORDSVL +  CLOUDY    20  17  88 W7        30.53R WCI  11
GREENCASTLE +  FLURRIES  21  19  93 SW3       30.54S
LAFAYETTE      LGT SNOW  22  18  85 W10       30.53R FOG     WCI  11
TERRE HAUTE    CLOUDY    23  12  62 NW7       30.58R WCI  15

$$

INZ030>032-037>040-046>048-054>057-064-065-091500-
CENTRAL INDIANA

CITY           SKY/WX    TMP DP  RH WIND       PRES   REMARKS
ANDERSON       CLEAR     19  16  86 W6        30.50  WCI  11
CP ATTERBURY + FLURRIES  23  16  74 W7        30.56R WCI  15
COLUMBUS       FLURRIES  21  18  86 W7        30.56R WCI  13
FISHERS *+     CLOUDY    19  19 100 W6        30.52R WCI  11
FRANKFORT +    FLURRIES  24  20  84 W9        30.53R WCI  14
GREENWOOD *+   CLOUDY    22  17  81 W7        30.53R WCI  13
INDIANAPOLIS   FLURRIES  21  16  81 W13       30.52R WCI   9
-EAGLE CREEK   CLOUDY    22  15  75 VRB7      30.52R WCI  13
KOKOMO +       CLOUDY    22  18  85 W15       30.49R WCI   9
MARION +       CLOUDY    20  17  86 W15G22    30.49R WCI   7
MT COMFORT *+  CLOUDY    21  16  79 W10       30.51R WCI  10
SHELBYVILLE    CLOUDY    22  15  75 W12       30.52R WCI  10
ZIONSVILLE +   FLURRIES  20  16  84 W9        30.51S WCI   9

$$

INZ033-034-041-042-049-050-058-059-091500-
EAST CENTRAL INDIANA

CITY           SKY/WX    TMP DP  RH WIND       PRES   REMARKS
MUNCIE         CLOUDY    20  15  81 W8        30.49R WCI  10

$$

INZ060-061-067>069-081>083-085>088-091500-
SOUTHWEST INDIANA

CITY           SKY/WX    TMP DP  RH WIND       PRES   REMARKS
EVANSVILLE     CLOUDY    24  13  62 N5        30.63R WCI  18
HUNTINGBURG *+ CLOUDY    21  16  79 NW8       30.61R WCI  12
WASHINGTON +   LGT SNOW  22  16  75 W3        30.61R

$$

INZ062-063-066-070>080-084-089>092-091500-
SOUTH CENTRAL AND SOUTHEAST INDIANA

CITY           SKY/WX    TMP DP  RH WIND       PRES   REMARKS
BLOOMINGTON    FLURRIES  21  12  68 W7        30.55R WCI  12
MADISON *+     CLOUDY    23  14  68 W8        30.57R WCI  14
NORTH VERNON + FLURRIES  23  18  80 W10       30.55R WCI  12
SEYMOUR +      FLURRIES  23  12  63 NW8       30.58R WCI  14

$$




USA.gov is the U.S. government's official web portal to all federal, state and local government web resources and services.